OBJECT CG, 58334

Orbit data source: Space-Track

You're viewing an Uncataloged Satellite

Recently launched and/or uncataloged satellites may have evolving metadata. Metadata may include but not limited to: Owner, Maufacturer, Bus, Motor, and Mission.

OBJECT CG, 58334 is a satellite in SSO that was launched on Sat, 11 Nov 2023 UTC via an FALCON 9 launch vehicle from the Air Force Western Test Range (AFWTR). Unknown objects in Earth's orbit typically refer to objects detected orbiting the Earth but have not yet been identified or cataloged. These objects could be anything from previously untracked satellites, spent rocket stages, debris from satellite collisions, or even natural meteoroids temporarily captured by Earth's gravity.

Loading next visibility...
Identifier
58334, 2023-174CG
Orbit
SSO
Country
Flag of TBDTBD
Related business
Manufacturer
Outpost Tech
Mission
Operational Commercial Technology
Bus & Motor
CUBESAT 3U, Unknown motor
Mass
3 kg wet, 3 kg dry
Launch date (UTC)
2023-11-11 (3 years ago)
Launch vehicle
FALCON 9
Launch site
Air Force Western Test Range (AFWTR)
Object type
Unknown
Shape & HBR
Box, 0.1 m
Radar Cross Section
0.035 m², Medium (>0.1 m² and < 1m²)

Expand to show TLE details & history
Last TLE update: 23 hours ago

TLE from 23 hours ago
0 OBJECT CG
1 58334U 23174CG  26172.47135843  .00035121  00000-0  46886-3 0  9990
2 58334  97.3961 265.5914 0005728 110.3597 249.8275 15.57990538146493
Epoch: 2026-06-21T11:18Z
TLE epoch observation values (Epoch: 2026-06-21T11:18:45.368Z)
Latitude
0.00003°
Longitude
-173.76879°
Altitude
397.955 km
Speed
7.671 km/s
True Right ascension
17h 42m 21s
True Declination
0° 00' 00"
Sunlit
Object was in full shadow at epoch
Visualization orbit readout
Latitude
Unknown
Longitude
Unknown
Altitude
Unknown
Speed
Unknown
Apparent Right ascension
Unknown
Apparent Declination
Unknown
Sunlit
N/A
Visualization observer readout
Local Sidereal Time
21:38:50
Azimuth
Unknown
Elevation
Unknown
Doppler factor
Unknown
Orbital elements
Apogee altitude
394.265 km
Perigee altitude
386.511 km
Semi-major axis
6,768.525 km
Eccentricity
0.00057
Inclination
97.3961°
RAAN
265.5914°
Arg. of periapsis
110.3597°
True anomaly
249.7659°
Mean anomaly
249.8275°
Eccentric anomaly
249.7967°
Mean motion
3.89764 °/min
Orbital period
92.36 mins
BSTAR
0.00046886
Loading maneuver chart data...
Computing Atmospheric mass density...

Documentation

Showing up to 5 results
|